Location: Grand Rapids
(42.9630°N, 85.6680°W)
Time: 03:41:54
(UTC-04:00)

S-56A Canister/Altair - Pass Details

Date: 08 June 2024
Orbit: 637 x 2489 km, 38.9° (Epoch: 22 June)

Event Time Altitude Azimuth Distance (km) Brightness Sun altitude
Rises 05:33:30 0° 268° (W) 6,031 11.6 -5.3°
Reaches altitude 10° 05:37:20 10° 267° (W) 5,105 11.2 -4.8°
Maximum altitude 05:52:27 75° 186° (S) 2,455 10.0 -2.5°
Drops below altitude 10° 06:05:16 10° 104° (ESE) 4,409 12.1 -0.6°
Sets 06:08:20 0° 103° (ESE) 5,198 12.5 -0.1°
